This is the latest recevied weather packets stored in our database for station/object W4JCW. If no packets are shown the sender has not sent any weather packets the latest 10 day(s).
| Time | Temp. | Humidity | Pressure | Rain* | Wind** | Luminosity | Snow |
|---|---|---|---|---|---|---|---|
| 1777591231 | 21.67° C | 74% | 1007.8 hPa | 0 mm | - | 39 W/m² | - |
| 1777590931 | 21.67° C | 74% | 1007.8 hPa | 0 mm | - | 43 W/m² | - |
| 1777590626 | 22.22° C | 72% | 1007.4 hPa | 0 mm | - | 49 W/m² | - |
| 1777590323 | 22.22° C | 69% | 1007.4 hPa | 0 mm | - | 57 W/m² | - |
| 1777590021 | 22.22° C | 69% | 1007.4 hPa | 0 mm | - | 60 W/m² | - |
| 1777589716 | 22.78° C | 67% | 1007.4 hPa | 0 mm | - | 74 W/m² | - |
| 1777589415 | 22.78° C | 65% | 1007.7 hPa | 0 mm | - | 55 W/m² | - |
| 1777589111 | 22.78° C | 62% | 1007.6 hPa | 0 mm | - | 59 W/m² | - |
| 1777588807 | 23.33° C | 61% | 1007.4 hPa | 0 mm | - | 72 W/m² | - |
| 1777588503 | 23.33° C | 60% | 1007.5 hPa | 0 mm | - | 69 W/m² | - |
| 1777588198 | 23.89° C | 58% | 1007.6 hPa | 0 mm | - | 74 W/m² | - |
| 1777587895 | 23.89° C | 58% | 1007.5 hPa | 0 mm | - | 83 W/m² | - |
| 1777587595 | 24.44° C | 56% | 1007.5 hPa | 0 mm | - | 126 W/m² | - |
| 1777587290 | 25° C | 57% | 1007.7 hPa | 0 mm | - | 165 W/m² | - |
| 1777586986 | 24.44° C | 56% | 1007.5 hPa | 0 mm | - | 197 W/m² | - |
| 1777586682 | 24.44° C | 57% | 1007.4 hPa | 0 mm | - | 250 W/m² | - |
| 1777586378 | 24.44° C | 58% | 1007.3 hPa | 0 mm | - | 220 W/m² | - |
| 1777586077 | 23.89° C | 59% | 1007.2 hPa | 0 mm | - | 269 W/m² | - |
| 1777585776 | 23.89° C | 59% | 1007.3 hPa | 0 mm | - | 217 W/m² | - |
| 1777585471 | 23.89° C | 59% | 1007.3 hPa | 0 mm | - | 195 W/m² | - |
| 1777585167 | 23.89° C | 59% | 1007.3 hPa | 0 mm | - | 217 W/m² | - |
| 1777584863 | 23.89° C | 59% | 1007.4 hPa | 0 mm | - | 167 W/m² | - |
| 1777584561 | 24.44° C | 58% | 1007.6 hPa | 0 mm | - | 144 W/m² | - |
| 1777584257 | 25° C | 59% | 1007.6 hPa | 0 mm | - | 190 W/m² | - |
| 1777583957 | 24.44° C | 59% | 1007.6 hPa | 0 mm | - | 449 W/m² | - |
* Rain latest hour (hover to see other rain measurements)
** Current wind speed in m/s (hover to see current wind gust speed)